TimeMDT,TemperatureF,Dew PointF,Humidity,Sea Level PressureIn,VisibilityMPH,Wind Direction,Wind SpeedMPH,Gust SpeedMPH,PrecipitationIn,Events,Conditions,WindDirDegrees,DateUTC
12:53 AM,79.0,48.0,34,29.88,10.0,NNW,3.5,-,N/A,,Clear,340,2013-08-17 06:53:00
1:53 AM,77.0,48.0,36,29.89,10.0,NW,17.3,24.2,N/A,,Clear,320,2013-08-17 07:53:00
2:53 AM,75.9,48.0,37,29.89,10.0,NW,15.0,21.9,N/A,,Clear,320,2013-08-17 08:53:00
3:53 AM,73.0,48.9,42,29.91,10.0,Calm,Calm,-,N/A,,Clear,0,2013-08-17 09:53:00
4:53 AM,73.9,48.9,41,29.92,10.0,Variable,3.5,-,N/A,,Clear,0,2013-08-17 10:53:00
5:53 AM,73.0,48.9,42,29.93,10.0,WNW,9.2,-,N/A,,Clear,290,2013-08-17 11:53:00
6:53 AM,69.1,51.1,53,29.94,10.0,West,5.8,-,N/A,,Clear,260,2013-08-17 12:53:00
7:53 AM,73.0,50.0,44,29.96,10.0,West,10.4,-,N/A,,Clear,280,2013-08-17 13:53:00
8:53 AM,73.9,52.0,46,29.98,10.0,WSW,5.8,-,N/A,,Clear,250,2013-08-17 14:53:00
9:53 AM,79.0,53.1,40,29.98,10.0,WSW,6.9,-,N/A,,Clear,240,2013-08-17 15:53:00
10:53 AM,82.9,53.1,36,29.97,10.0,Calm,Calm,-,N/A,,Clear,0,2013-08-17 16:53:00
11:53 AM,86.0,54.0,33,29.96,10.0,Variable,3.5,-,N/A,,Clear,0,2013-08-17 17:53:00
12:53 PM,88.0,51.1,28,29.94,10.0,Calm,Calm,-,N/A,,Clear,0,2013-08-17 18:53:00
1:53 PM,90.0,53.1,28,29.91,10.0,Calm,Calm,-,N/A,,Clear,0,2013-08-17 19:53:00
2:53 PM,90.0,57.0,33,29.89,10.0,SE,3.5,-,N/A,,Clear,140,2013-08-17 20:53:00
3:53 PM,91.9,55.9,30,29.87,10.0,East,3.5,-,N/A,,Clear,100,2013-08-17 21:53:00
4:53 PM,93.0,51.1,24,29.83,10.0,SE,5.8,-,N/A,,Clear,130,2013-08-17 22:53:00
5:53 PM,95.0,48.0,20,29.82,10.0,East,4.6,-,N/A,,Clear,100,2013-08-17 23:53:00
6:53 PM,93.0,51.1,24,29.81,10.0,East,6.9,-,N/A,,Clear,100,2013-08-18 00:53:00
7:53 PM,90.0,53.1,28,29.80,10.0,Calm,Calm,-,N/A,,Clear,0,2013-08-18 01:53:00
8:53 PM,81.0,54.0,39,29.80,10.0,SSE,5.8,-,N/A,,Clear,160,2013-08-18 02:53:00
9:53 PM,84.0,50.0,31,29.83,10.0,NW,17.3,25.3,N/A,,Clear,310,2013-08-18 03:53:00
10:53 PM,82.0,50.0,33,29.85,10.0,NW,20.7,27.6,N/A,,Clear,320,2013-08-18 04:53:00
11:53 PM,80.1,50.0,35,29.88,10.0,North,9.2,23.0,N/A,,Clear,360,2013-08-18 05:53:00